APRIZESAT 2 1 28366U 04025A 25260.44713094 .00000142 00000+0 57375-4 0 9990 2 28366 98.0819 77.2499 0105741 354.3028 5.6949 14.37847162112441 SAUDICOMSAT 1 1 28369U 04025D 25260.95974137 .00000389 00000+0 10078-3 0 9997 2 28369 98.5764 258.8205 0033199 135.6667 224.7196 14.55121352124533 SAUDICOMSAT 2 1 28370U 04025E 25261.21714594 .00000414 00000+0 11830-3 0 9994 2 28370 98.6661 260.7998 0055794 4.6032 355.5663 14.49689263120697 APRIZESAT 1 1 28372U 04025G 25261.24310362 .00000279 00000+0 81245-4 0 9991 2 28372 98.6305 259.6079 0043490 261.7959 97.8301 14.51528172122450 NANOSAT-1 1 28493U 04049B 25260.93276649 .00001239 00000+0 17429-3 0 9994 2 28493 98.1921 26.7325 0005271 90.0228 270.1587 14.79191596115187 SAUDICOMSAT 7 1 31119U 07012C 25260.89494232 .00000858 00000+0 16430-3 0 9998 2 31119 98.3393 225.1550 0055639 331.2443 28.5696 14.65539031982541 SAUDICOMSAT 6 1 31121U 07012E 25260.82963011 .00000667 00000+0 13793-3 0 9997 2 31121 98.3690 219.0114 0073853 94.7382 266.2257 14.62000897980376 SAUDICOMSAT 5 1 31124U 07012H 25260.90279461 .00000754 00000+0 14022-3 0 9991 2 31124 98.3104 225.9690 0046442 262.3600 97.2328 14.67541595983648 SAUDICOMSAT 3 1 31125U 07012J 25260.84876978 .00000797 00000+0 14028-3 0 9994 2 31125 98.2767 226.5082 0039236 191.0936 168.9408 14.69963084984805 SAUDICOMSAT 4 1 31127U 07012L 25260.84562580 .00000869 00000+0 17084-3 0 9992 2 31127 98.3591 223.5782 0064856 30.4095 330.0844 14.63937036981529 APRIZESAT 4 1 35684U 09041D 25261.11807494 .00000877 00000+0 11256-3 0 9999 2 35684 98.1756 325.6644 0045007 122.6466 237.9102 14.83209830871027 APRIZESAT 3 1 35686U 09041F 25261.21116742 .00002055 00000+0 18773-3 0 9992 2 35686 98.1694 37.2937 0062210 244.3213 115.1573 14.94833589875724 S-NET D 1 43186U 18014G 25261.14065979 .00005401 00000+0 31127-3 0 9999 2 43186 97.5504 163.0183 0007241 231.5749 128.4832 15.12788849417576 S-NET B 1 43187U 18014H 25261.14739664 .00005472 00000+0 31549-3 0 9995 2 43187 97.5508 163.0017 0008050 227.0650 132.9906 15.12766490417577 S-NET A 1 43188U 18014J 25260.74381907 .00005561 00000+0 32034-3 0 9993 2 43188 97.5516 162.7657 0007872 229.1036 130.9513 15.12789929417513 S-NET C 1 43189U 18014K 25260.95160575 .00005465 00000+0 31505-3 0 9998 2 43189 97.5532 163.0028 0009526 221.2421 138.8091 15.12759655416090 SALSAT 1 46495U 20068K 25260.91735551 .00007439 00000+0 30842-3 0 9997 2 46495 97.8707 243.7322 0011516 163.1562 197.0059 15.24146179273800 OOV-CUBE (TUBSAT-30) 1 60240U 24128F 25260.95591744 .00002794 00000+0 22761-3 0 9990 2 60240 61.9944 93.5932 0058013 76.3708 284.3834 15.00806726 65228